Powrót do katalogu

THOR ABLESTAR DEB

AktywnyLEO
NORAD 128·DEBRIS·🇺🇸 United States

Wystrzelony Jun 29, 1961 z Cape Canaveral Space Force Station

Loading…

Następne Przeloty (najbliższe 24 godziny)

TLE

ŚwieżeSource: Space-Track

Epoka: Sep 14, 2026, 13:24 UTC

1 00128U 61015N   26257.55884710  .00000055  00000-0  84449-4 0  9997
2 00128  66.6760 316.4673 0100763 258.0536 100.9238 14.02053402327602

Śledź THOR ABLESTAR DEB w czasie rzeczywistym z AllMySat

Download on the App Store